Weather Roundup
Issued by NWS

Home | Current Version | Previous Version | Text Only | Print | Product List | Glossary On
Versions: 1 2 3 4 5 6 7 8 9 10 11 12 13 14 15 16 17 18 19 20 21 22 23 24 25 26 27 28 29 30 31 32 33 34 35 36 37 38 39 40 41 42 43 44 45 46 47 48 49 50
000
NZUS93 KARX 230559
HRRWXR

CURRENT HOURLY OBSERVATIONS ACROSS
MUCH OF THE UPPER MISSISSIPPI VALLEY
NATIONAL WEATHER SERVICE LA CROSSE WI
1200 AM CST THU NOV 23 2017


...SOUTHEAST MINNESOTA...


CITY           SKY/WX    TMP DP  RH WIND       PRES   REMARKS
ROCHESTER      CLEAR     29  18  63 S13       29.96F WCI  19
ROCHESTER/MAYO FAIR      31  17  55 S9        29.96F WCI  23
WINONA         CLOUDY    34  19  55 S3        30.01F
AUSTIN         NOT AVBL
ALBERT LEA     CLEAR     30  16  55 S6        29.95F WCI  24
DODGE CENTER   CLEAR     27  18  69 S8        29.94F WCI  18
PRESTON        CLOUDY    30  17  57 S12       29.98F WCI  20
OWATONNA       CLOUDY    30  19  64 S10       29.94F WCI  21
FARIBAULT      CLOUDY    28  18  64 S5        29.94F WCI  23
$$

...ELSEWHERE IN MINNESOTA...


CITY           SKY/WX    TMP DP  RH WIND       PRES   REMARKS
MINNEAPOLIS    PTCLDY    30  18  60 SE6       29.94F WCI  24
INTNL FALLS    CLOUDY    19  15  84 SW5       29.90F WCI  12
DULUTH         CLOUDY    22  19  89 W6        29.93F WCI  14
RED WING       CLOUDY    32  14  47 SE3       29.96F
REDWOOD FALLS  CLOUDY    24  15  68 S3        29.91F
MANKATO        CLOUDY    28  18  66 S8        29.93F WCI  20
WORTHINGTON    CLOUDY    30  20  66 SW10      29.93F WCI  21
FAIRMONT       CLOUDY    25  18  74 S6        29.95F WCI  18
$$

...SOUTHWEST WISCONSIN...


CITY           SKY/WX    TMP DP  RH WIND       PRES   REMARKS
LA CROSSE      CLOUDY    34  18  52 S10       30.03F WCI  26
PRAIRIE DU CHI CLOUDY    34  14  44 SE5       30.08F WCI  30
BOSCOBEL       CLOUDY    34  16  47 S6        30.08F WCI  29
LONE ROCK      CLOUDY    33  18  53 S6        30.10F WCI  28
PLATTEVILLE    CLOUDY    32  21  64 S9        30.10F WCI  24
FORT MC COY    CLOUDY    32  17  55 CALM      30.06S
CAMP DOUGLAS   CLOUDY    31  15  52 S5        30.05F WCI  26
MAUSTON-NEW LI CLOUDY    32  17  53 S7        30.06F WCI  25
VIROQUA        CLOUDY    31  19  62 S10       30.03F WCI  22
WIS DELLS      CLOUDY    31  16  54 SW6       30.08F WCI  25
$$

...ELSEWHERE IN WISCONSIN...


CITY           SKY/WX    TMP DP  RH WIND       PRES   REMARKS
MILWAUKEE      CLOUDY    32  20  61 SW7       30.14F WCI  26
MADISON        CLOUDY    31  18  58 S9        30.10F WCI  23
GREEN BAY      CLOUDY    29  23  78 SW10      30.08F WCI  20
EAU CLAIRE     CLOUDY    29  17  61 SE6       29.97F WCI  23
BLACK RVR FLS  CLOUDY    31  15  51 CALM      30.04S
MEDFORD        CLOUDY    24  19  82 S8        30.00F WCI  15
WAUSAU         CLOUDY    25  19  78 SW8       30.02F WCI  16
WIS RAPIDS     CLOUDY    28  19  69 SW5       30.06F WCI  23
MARSHFIELD     CLOUDY    27  18  69 S10       30.00F WCI  17
RICE LAKE      CLOUDY    26  20  79 SE7       29.98F WCI  18
$$

...NORTHEAST IOWA...


CITY           SKY/WX    TMP DP  RH WIND       PRES   REMARKS
WATERLOO       CLOUDY    33  16  49 S12       30.03F WCI  24
DUBUQUE        CLOUDY    31  19  61 S13       30.09F WCI  21
DECORAH        MIX PCPN  32  18  55 SW9G16    30.01F WCI  24
MASON CITY     CLEAR     26  16  65 S6        29.99F WCI  19
CHARLES CITY   CLOUDY    32  16  51 S12       30.00F WCI  23
OELWEIN        CLOUDY    32  19  59 S14       30.03F WCI  22
$$

...ELSEWHERE IN IOWA...


CITY           SKY/WX    TMP DP  RH WIND       PRES   REMARKS
DES MOINES     CLEAR     34  17  50 S10       30.03F WCI  26
IOWA CITY      MIX PCPN  33  20  58 S6        30.13F WCI  28
FORT DODGE     CLEAR     31  19  61 S9        29.98F WCI  23
MARSHALLTOWN   MOCLDY    33  17  51 S12       30.02F WCI  24
CEDAR RAPIDS   CLOUDY    33  17  51 S10       30.08F WCI  25
$$

...NORTHERN ILLINOIS...


CITY           SKY/WX    TMP DP  RH WIND       PRES   REMARKS
CHICAGO-OHARE  CLOUDY    32  17  54 SW9       30.16F WCI  24
CHICAGO-MIDWAY NOT AVBL
MOLINE         CLOUDY    34  18  52 S7        30.15F WCI  28
ROCKFORD       CLOUDY    31  22  69 S6        30.18S WCI  25
PEORIA         CLOUDY    33  21  61 S7        30.20F WCI  27
$$

NOTE: "FAIR" INDICATES FEW OR NO CLOUDS BELOW 12,000 FEET WITH NO
SIGNIFICANT WEATHER AND/OR OBSTRUCTIONS TO VISIBILITY. WIND
SPEEDS ARE IN MILES-PER-HOUR.




USA.gov is the U.S. government's official web portal to all federal, state and local government web resources and services.